This is the latest recevied weather packets stored in our database for station/object W5DRO-13. If no packets are shown the sender has not sent any weather packets the latest 1 day(s).
| Time | Temp. | Humidity | Pressure | Rain* | Wind** | Luminosity | Snow |
|---|---|---|---|---|---|---|---|
| 1836274844 | 23.33° C | 77% | 1016.9 hPa | 0 mm | 0 m/s | - | - |
| 1836274542 | 23.33° C | 76% | 1017.3 hPa | 0 mm | 0 m/s | - | - |
| 1836274395 | 23.33° C | 76% | 1017.1 hPa | 0 mm | 0 m/s | - | - |
| 1836274241 | 23.33° C | 76% | 1017.2 hPa | 0 mm | 0 m/s | - | - |
| 1836273940 | 23.33° C | 76% | 1017.4 hPa | 0 mm | 0 m/s | - | - |
| 1778032133 | 10° C | 80% | 1012.9 hPa | 0 mm | 1.34 m/s, 51° | - | - |
| 1778031830 | 10° C | 80% | 1012.8 hPa | 0 mm | 0.89 m/s, 37° | - | - |
| 1778031526 | 10° C | 80% | 1012.7 hPa | 0 mm | 0.45 m/s, 28° | - | - |
| 1778031224 | 10° C | 80% | 1012.7 hPa | 0 mm | 1.79 m/s, 59° | - | - |
| 1778030920 | 10° C | 80% | 1012.5 hPa | 0 mm | 0.89 m/s, 7° | - | - |
| 1778030617 | 10° C | 80% | 1012.7 hPa | 0 mm | 0.45 m/s, 66° | - | - |
| 1778030314 | 10° C | 80% | 1012.1 hPa | 0 mm | 2.24 m/s, 52° | - | - |
| 1778030011 | 10° C | 80% | 1012.4 hPa | 0 mm | 0 m/s | - | - |
| 1778029708 | 10° C | 80% | 1012 hPa | 0 mm | 0.45 m/s, 16° | - | - |
| 1778029406 | 10° C | 81% | 1011.9 hPa | 0 mm | 0 m/s | - | - |
| 1778029103 | 10° C | 80% | 1011.6 hPa | 0 mm | 0.89 m/s, 94° | - | - |
| 1778028800 | 10.56° C | 79% | 1011.5 hPa | 0 mm | 1.34 m/s, 285° | - | - |
| 1778028496 | 10.56° C | 79% | 1011.5 hPa | 0 mm | 0.45 m/s, 61° | - | - |
| 1778028194 | 10.56° C | 78% | 1011.5 hPa | 0 mm | 0.89 m/s, 47° | - | - |
| 1778027889 | 10.56° C | 77% | 1011.5 hPa | 0 mm | 0.45 m/s, 33° | - | - |
| 1778027586 | 10.56° C | 77% | 1011.6 hPa | 0 mm | 1.79 m/s, 2° | - | - |
| 1778027282 | 10.56° C | 77% | 1011.3 hPa | 0 mm | 0 m/s | - | - |
| 1778026979 | 10.56° C | 76% | 1011.2 hPa | 0 mm | 0.45 m/s, 61° | - | - |
| 1778026674 | 11.11° C | 76% | 1011.2 hPa | 0 mm | 1.79 m/s, 343° | - | - |
| 1778026372 | 11.11° C | 76% | 1011.4 hPa | 0 mm | 0.45 m/s, 41° | - | - |
* Rain latest hour (hover to see other rain measurements)
** Current wind speed in m/s (hover to see current wind gust speed)